Date,TemperatureHighF,TemperatureAvgF,TemperatureLowF,DewpointHighF,DewpointAvgF,DewpointLowF,HumidityHigh,HumidityAvg,HumidityLow,PressureMaxIn,PressureMinIn,WindSpeedMaxMPH,WindSpeedAvgMPH,GustSpeedMaxMPH,PrecipitationSumIn
2013-1-1,80,73,68,62,59,56,70,61,53,29.86,29.71,25,5,25,0.00
2013-1-2,81,72,64,67,62,56,79,71,61,29.74,29.64,21,4,25,0.00
2013-1-3,82,74,68,68,65,61,80,73,61,29.78,29.68,27,6,27,0.00
2013-1-4,82,73,67,70,65,61,82,76,66,29.88,29.76,26,3,26,0.00
2013-1-5,76,70,68,67,64,62,84,80,72,29.91,29.81,25,5,27,0.12
2013-1-6,82,75,67,70,67,61,84,76,67,29.84,29.71,22,5,28,0.06
2013-1-7,75,72,68,67,65,62,83,80,75,29.82,29.72,29,7,29,0.37
2013-1-8,82,77,74,71,69,66,81,75,68,29.85,29.72,16,5,22,0.16
2013-1-9,82,78,75,71,68,67,81,73,67,29.93,29.81,19,6,19,0.12
2013-1-10,81,77,75,67,65,63,73,67,56,29.95,29.84,19,7,19,0.00
2013-1-11,81,76,74,68,66,64,75,70,64,29.91,29.81,16,5,16,0.00
2013-1-12,81,76,74,67,65,63,77,69,62,29.83,29.74,14,5,14,0.02
2013-1-13,82,76,73,67,64,62,73,66,58,29.78,29.72,16,6,17,0.02
2013-1-14,80,76,72,65,63,60,71,64,58,29.82,29.77,12,4,12,0.02
2013-1-15,80,76,73,66,64,61,73,68,62,29.79,29.69,21,5,114,0.00
2013-1-16,82,76,68,68,65,59,78,70,61,29.76,29.67,23,6,25,0.02
2013-1-17,80,72,62,69,64,53,82,76,68,29.74,29.62,22,6,24,0.88
2013-1-18,70,64,54,58,52,44,70,64,57,29.89,29.74,16,4,16,0.16
2013-1-19,72,70,67,64,61,57,82,73,63,29.84,29.74,22,6,26,0.10
2013-1-20,79,72,65,67,63,59,84,76,65,29.79,29.67,22,3,24,0.12
2013-1-21,80,73,67,69,64,61,83,75,65,29.72,29.61,23,7,28,0.04
2013-1-22,76,69,-22,61,57,-32,80,66,54,29.87,29.65,22,8,22,0.02
2013-1-23,76,69,63,57,53,50,69,58,47,29.94,29.85,22,6,22,0.00
2013-1-24,76,67,60,54,52,48,72,59,44,29.94,29.85,23,5,25,0.00
2013-1-25,77,68,60,60,54,49,69,61,49,29.94,29.82,24,6,26,0.00
2013-1-26,79,69,61,60,56,51,75,64,50,29.91,29.81,24,5,26,0.00
2013-1-27,78,71,64,62,59,56,75,65,51,29.94,29.85,20,6,114,0.00
2013-1-28,80,75,72,65,62,59,72,64,55,29.97,29.87,18,6,18,0.00
2013-1-29,80,75,73,67,65,63,73,70,66,29.89,29.78,15,5,16,0.00
2013-1-30,81,75,72,67,64,61,76,68,61,29.77,29.62,23,6,23,0.00
2013-1-31,74,69,60,67,57,41,81,68,48,29.83,29.60,26,6,26,0.00
2013-2-1,74,64,55,55,48,39,63,56,47,29.92,29.81,31,6,31,0.00
2013-2-2,74,66,57,52,48,38,67,54,43,29.91,29.77,21,6,24,0.00
2013-2-3,77,65,58,53,48,42,75,56,35,29.82,29.71,21,4,23,0.00
2013-2-4,75,64,53,54,47,39,68,55,37,29.79,29.68,30,5,30,0.00
2013-2-5,79,68,57,61,56,49,75,65,53,29.73,29.65,22,4,25,0.00
2013-2-6,80,72,63,65,60,56,78,68,59,29.76,29.67,26,6,26,0.00
2013-2-7,82,75,71,66,63,60,70,65,57,29.73,29.59,11,5,12,0.00
2013-2-8,84,76,70,68,65,61,80,70,57,29.68,29.54,29,5,29,0.00
2013-2-9,80,72,67,66,62,58,79,69,60,29.82,29.66,22,8,31,0.00
2013-2-10,76,72,70,61,60,56,70,64,60,29.91,29.80,16,7,20,0.00
2013-2-11,80,74,70,65,62,59,70,65,58,29.87,29.76,14,5,19,0.00
2013-2-12,82,76,71,68,65,62,75,69,59,29.76,29.62,114,6,114,0.00
2013-2-13,84,76,70,71,67,63,80,73,65,29.66,29.54,22,8,26,0.00
2013-2-14,80,72,65,69,65,59,82,77,68,29.65,29.51,24,6,97,1.31
2013-2-15,74,68,65,65,62,59,83,80,72,29.67,29.59,26,8,27,0.61
2013-2-16,74,67,57,62,55,44,82,68,44,29.73,29.53,26,5,27,0.02
2013-2-17,62,54,46,44,30,22,62,42,27,29.95,29.72,19,6,21,0.02
2013-2-18,70,60,48,55,43,32,65,54,46,29.97,29.85,20,6,23,0.00
2013-2-19,79,72,67,64,59,52,77,64,57,29.84,29.73,20,6,32,0.00
2013-2-20,79,72,66,65,62,59,80,71,55,29.76,29.66,26,8,26,0.00
2013-2-21,82,76,71,67,64,62,75,68,59,29.74,29.64,22,4,26,0.00
2013-2-22,83,77,73,70,67,63,77,72,64,29.75,29.66,21,6,21,0.00
2013-2-23,84,78,74,71,68,66,78,72,64,29.69,29.56,17,6,24,0.00
2013-2-24,85,78,72,73,69,66,83,74,63,29.64,29.55,18,3,18,0.00
2013-2-25,85,77,71,73,68,64,81,74,65,29.56,29.46,22,7,114,0.00
2013-2-26,85,78,-22,72,69,-28,78,72,65,29.54,29.45,22,8,22,0.00
2013-2-27,78,72,66,70,64,61,82,74,59,29.61,29.50,22,6,25,0.39
2013-2-28,72,66,60,61,53,50,82,65,48,29.65,29.55,24,6,24,0.02
2013-3-1,66,63,59,54,50,46,72,62,53,29.64,29.55,22,6,23,0.00
2013-3-2,67,59,54,48,41,36,66,52,40,29.68,29.60,20,4,22,0.00
2013-3-3,65,56,51,45,41,39,74,58,42,29.79,29.61,21,3,22,0.00
2013-3-4,67,56,45,43,37,32,65,50,34,29.86,29.77,19,4,20,0.00
2013-3-5,75,64,52,57,50,42,73,62,50,29.83,29.73,22,3,22,0.00
2013-3-6,79,67,55,61,50,33,79,58,32,29.75,29.59,25,5,25,0.00
2013-3-7,71,61,50,51,43,34,72,53,39,29.83,29.72,23,5,23,0.00
2013-3-8,76,65,55,52,50,46,73,59,39,29.85,29.75,21,4,23,0.00
2013-3-9,76,67,58,57,52,47,72,59,47,29.84,29.75,15,4,18,0.00
2013-3-10,77,71,67,59,55,51,68,56,47,29.81,29.71,15,7,16,0.00
2013-3-11,81,73,69,62,59,56,68,61,49,29.75,29.60,14,6,17,0.00
2013-3-12,82,75,71,69,64,60,74,69,64,29.65,29.55,19,6,19,0.00
2013-3-13,77,68,60,63,55,46,75,63,41,29.76,29.62,22,6,24,0.00
2013-3-14,73,63,56,51,46,41,70,56,35,29.85,29.73,19,6,19,0.00
2013-3-15,74,64,55,53,48,42,69,57,46,29.89,29.80,22,6,23,0.00
2013-3-16,77,68,57,56,52,49,74,59,44,29.84,29.74,25,3,25,0.00
2013-3-17,79,70,63,60,57,52,73,63,52,29.80,29.67,23,6,31,0.00
2013-3-18,83,74,69,68,63,59,79,70,60,29.72,29.61,25,6,25,0.10
2013-3-19,80,74,70,67,65,63,82,74,60,29.65,29.46,22,7,28,0.02
2013-3-20,84,74,66,69,64,58,80,71,56,29.62,29.45,19,5,28,0.00
2013-3-21,77,69,62,59,54,50,78,60,43,29.60,29.47,19,4,24,0.00
2013-3-22,79,70,59,66,57,50,75,65,54,29.65,29.55,17,4,17,0.00
2013-3-23,86,79,73,73,69,66,80,73,61,29.63,29.44,22,8,25,0.02
2013-3-24,92,80,-22,72,69,-30,81,69,51,29.53,29.32,22,8,29,0.02
2013-3-25,81,75,67,69,59,43,81,59,36,29.63,29.38,22,5,22,0.18
2013-3-26,71,63,56,43,38,35,49,40,29,29.86,29.63,19,5,26,0.00
2013-3-27,70,59,49,46,40,33,59,50,39,29.89,29.81,21,5,21,0.00
2013-3-28,73,63,52,49,44,36,66,51,33,29.91,29.81,22,4,22,0.00
2013-3-29,77,66,57,53,48,41,62,52,42,29.93,29.84,20,5,22,0.00
2013-3-30,77,71,65,54,51,50,59,50,40,29.91,29.81,20,5,25,0.00
2013-3-31,83,74,68,66,60,53,71,62,52,29.83,29.69,23,6,26,0.00
2013-4-1,86,77,72,69,65,62,77,66,48,29.69,29.58,24,6,24,0.00
2013-4-2,83,75,68,66,64,61,81,68,54,29.72,29.62,23,7,23,0.00
2013-4-3,86,78,74,70,66,64,74,67,57,29.70,29.63,20,5,24,0.00
2013-4-4,85,77,71,72,68,64,81,73,64,29.68,29.55,19,6,22,1.16
2013-4-5,74,70,66,67,63,61,82,79,75,29.62,29.46,21,5,28,1.08
2013-4-6,79,70,61,64,59,54,82,69,57,29.72,29.56,16,5,17,0.02
2013-4-7,79,74,71,63,61,59,69,64,55,29.78,29.66,14,6,17,0.02
2013-4-8,83,76,66,63,61,56,73,60,50,29.77,29.68,21,5,25,0.00
2013-4-9,82,77,74,68,64,62,71,65,57,29.79,29.68,14,5,18,0.00
2013-4-10,86,79,74,72,68,64,75,69,61,29.74,29.63,15,6,15,0.00
2013-4-11,86,79,76,72,69,67,78,72,62,29.66,29.54,15,6,19,0.00
2013-4-12,88,80,78,75,72,70,78,75,64,29.59,29.52,24,7,24,0.16
2013-4-13,84,78,74,74,70,68,80,77,69,29.61,29.51,13,2,13,0.26
2013-4-14,88,80,74,74,71,67,83,75,63,29.61,29.54,14,4,15,0.02
2013-4-15,89,80,73,76,71,66,80,74,63,29.71,29.56,18,2,18,0.57
2013-4-16,86,79,72,74,70,66,84,75,64,29.76,29.66,18,4,18,0.16
2013-4-17,85,79,76,69,67,65,74,67,57,29.75,29.66,17,5,17,0.00
2013-4-18,87,81,76,73,69,66,75,68,60,29.71,29.62,14,5,14,0.00
2013-4-19,89,82,78,74,71,68,75,68,58,29.69,29.60,18,6,18,0.00
2013-4-20,89,80,74,76,71,67,82,75,63,29.72,29.60,16,4,16,1.22
2013-4-21,86,78,73,73,69,66,82,74,63,29.74,29.63,12,3,19,0.02
2013-4-22,85,76,71,71,68,65,81,75,61,29.69,29.57,11,2,11,1.31
2013-4-23,84,76,69,68,64,60,82,68,55,29.73,29.59,19,5,19,0.02
2013-4-24,84,78,73,66,63,59,67,59,51,29.78,29.68,15,5,15,0.02
2013-4-25,84,78,73,64,61,59,65,58,50,29.84,29.72,10,4,12,0.00
2013-4-26,84,77,72,66,63,59,68,61,54,29.87,29.76,14,5,18,0.00
2013-4-27,84,77,-22,66,62,-33,68,60,50,29.86,29.73,13,6,18,0.00
2013-4-28,85,78,74,65,63,61,68,60,50,29.76,29.64,16,6,17,0.00
2013-4-29,85,79,75,70,66,62,73,66,58,29.68,29.58,12,4,16,0.00
2013-4-30,86,79,74,72,68,66,75,70,60,29.64,29.57,12,3,12,0.04
2013-5-1,87,78,72,72,68,65,80,73,61,29.65,29.57,9,1,10,0.29
2013-5-2,79,73,-22,70,66,-26,84,79,73,29.59,29.44,18,4,18,5.20
2013-5-3,86,76,69,72,67,64,84,75,59,29.46,29.33,12,3,13,0.20
2013-5-4,88,77,69,70,66,63,82,69,51,29.44,29.33,7,1,9,0.08
2013-5-5,84,75,-22,66,61,-27,79,62,39,29.58,29.40,24,4,24,0.00
2013-5-6,86,74,63,65,59,54,74,61,47,29.66,29.56,76,10,78,0.02
2013-5-7,85,74,65,65,60,56,73,63,48,29.71,29.62,76,18,77,0.02
2013-5-8,86,76,64,65,61,56,75,62,47,29.78,29.68,22,3,26,0.00
2013-5-9,88,79,68,72,66,59,72,65,56,29.79,29.71,21,3,22,0.00
2013-5-10,89,81,75,72,69,67,75,68,53,29.78,29.71,14,2,14,0.00
2013-5-11,89,83,77,75,70,66,74,67,61,29.72,29.63,17,4,19,0.00
2013-5-12,90,80,74,74,70,66,79,70,57,29.71,29.59,16,3,16,0.77
2013-5-13,89,79,72,72,68,65,81,69,54,29.73,29.63,17,2,17,0.26
2013-5-14,83,78,74,65,60,55,66,55,45,29.82,29.71,17,5,17,0.00
2013-5-15,84,78,74,64,60,56,61,53,44,29.84,29.74,13,5,13,0.00
2013-5-16,86,78,73,64,61,56,62,55,47,29.76,29.69,15,4,15,0.00
2013-5-17,88,80,73,72,68,62,80,67,56,29.75,29.65,14,3,14,0.41
2013-5-18,87,80,75,74,70,68,80,71,61,29.75,29.68,12,2,13,0.31
2013-5-19,87,81,77,70,68,65,72,65,54,29.75,29.64,13,3,13,0.00
2013-5-20,83,77,72,72,69,65,82,76,69,29.72,29.62,23,3,23,2.90
2013-5-21,84,78,72,72,69,66,82,74,63,29.69,29.58,14,4,15,0.10
2013-5-22,85,78,74,73,69,66,80,76,65,29.63,29.54,13,2,13,0.61
2013-5-23,94,82,74,75,71,68,81,70,48,29.65,29.55,10,2,11,0.02
2013-5-24,90,83,77,74,72,70,80,69,59,29.70,29.59,11,2,16,0.00
2013-5-25,87,81,76,71,67,63,76,63,51,29.81,29.68,19,6,19,0.00
2013-5-26,86,80,76,68,64,60,68,58,52,29.82,29.75,15,5,22,0.00
2013-5-27,87,79,-22,72,67,-32,78,66,60,29.80,29.71,18,7,18,0.18
2013-5-28,85,79,77,72,70,67,78,73,64,29.76,29.68,19,8,19,0.10
2013-5-29,80,76,72,71,68,65,83,76,66,29.74,29.67,20,8,21,2.39
2013-5-30,83,78,74,72,69,66,79,73,66,29.72,29.65,22,9,22,0.12
2013-5-31,86,79,76,74,70,68,80,74,67,29.71,29.65,19,7,20,0.12
2013-6-1,86,78,75,74,71,69,81,77,66,29.68,29.60,12,3,13,0.43
2013-6-2,88,80,73,75,71,67,82,74,61,29.65,29.57,15,2,15,0.08
2013-6-3,90,81,74,75,71,68,79,73,60,29.68,29.56,13,2,13,0.16
2013-6-4,86,80,75,74,71,68,81,75,62,29.70,29.60,9,2,10,0.22
2013-6-5,85,82,80,75,73,71,77,75,70,29.67,29.54,15,4,15,0.02
2013-6-6,89,81,77,77,73,69,82,76,66,29.55,29.43,17,7,24,1.04
2013-6-7,91,79,75,77,71,68,82,77,62,29.64,29.49,21,4,25,0.49
2013-6-8,90,80,75,78,73,69,83,78,67,29.75,29.61,13,3,17,0.06
2013-6-9,89,83,79,75,73,71,78,71,61,29.76,29.68,18,6,18,0.04
2013-6-10,90,84,80,76,74,72,77,70,61,29.74,29.66,19,6,19,0.00
2013-6-11,89,83,80,76,74,71,78,74,62,29.74,29.66,11,3,12,0.90
2013-6-12,88,82,78,76,73,71,80,75,66,29.73,29.66,9,1,9,0.88
2013-6-13,91,82,76,76,72,70,81,73,59,29.70,29.59,13,2,13,0.10
2013-6-14,93,82,76,76,71,69,78,69,54,29.62,29.53,11,3,19,0.04
2013-6-15,91,84,76,75,72,69,80,69,59,29.70,29.57,10,2,11,0.00
2013-6-16,92,85,77,77,73,70,78,69,58,29.74,29.66,13,3,13,0.00
2013-6-17,94,86,81,77,74,71,73,66,56,29.73,29.66,13,4,13,0.00
2013-6-18,94,87,82,77,74,72,74,66,55,29.72,29.63,12,4,14,0.00
2013-6-19,94,86,80,77,74,72,77,67,55,29.70,29.63,15,4,15,0.00
2013-6-20,91,83,74,76,72,66,80,69,58,29.74,29.67,32,3,32,1.04
2013-6-21,92,86,81,75,72,70,73,65,55,29.76,29.68,11,4,11,0.02
2013-6-22,92,85,80,75,72,70,73,65,57,29.75,29.68,12,4,12,0.00
2013-6-23,91,85,80,100,72,70,100,66,56,29.77,29.70,18,5,114,0.02
2013-6-24,92,85,80,75,72,69,73,65,57,29.81,29.72,13,5,14,0.02
2013-6-25,92,85,81,100,73,70,100,68,56,29.78,29.68,114,5,114,0.00
2013-6-26,92,84,81,76,73,71,77,69,58,29.73,29.66,12,4,12,0.20
2013-6-27,92,84,80,76,73,71,77,69,58,29.71,29.61,11,2,11,0.02
2013-6-28,91,82,75,76,72,66,78,71,62,29.65,29.51,16,2,16,1.63
2013-6-29,92,82,76,77,72,68,81,72,58,29.56,29.47,15,2,15,0.06
2013-6-30,92,83,78,76,72,70,78,71,59,29.60,29.50,23,4,23,0.02
2013-7-1,91,83,76,77,73,68,78,71,61,29.68,29.56,14,4,14,0.45
2013-7-2,91,84,77,78,74,70,80,72,64,29.76,29.63,16,3,19,0.04
2013-7-3,92,83,79,77,73,70,78,72,62,29.78,29.70,14,4,17,0.14
2013-7-4,92,85,80,76,73,69,74,68,58,29.80,29.72,16,5,16,0.02
2013-7-5,86,82,79,75,72,71,78,72,66,29.78,29.70,14,5,18,0.31
2013-7-6,90,84,80,75,72,71,75,69,59,29.77,29.68,15,6,15,0.14
2013-7-7,90,84,80,76,73,71,73,68,61,29.75,29.67,18,5,18,0.02
2013-7-8,90,84,80,75,72,70,71,66,59,29.79,29.72,13,4,14,0.00
2013-7-9,89,83,77,74,71,67,75,67,57,29.79,29.70,17,3,17,0.04
2013-7-10,86,79,73,74,70,66,80,74,67,29.74,29.65,13,1,13,1.24
2013-7-11,93,84,78,76,73,70,77,69,58,29.69,29.59,11,2,14,0.10
2013-7-12,94,83,78,76,72,68,78,69,55,29.62,29.55,12,1,16,0.00
2013-7-13,87,78,74,74,69,67,81,76,65,29.68,29.57,10,1,10,1.53
2013-7-14,90,80,74,74,70,67,81,74,58,29.74,29.64,13,2,13,0.57
2013-7-15,90,81,74,74,71,67,82,72,58,29.74,29.66,14,2,14,0.24
2013-7-16,84,79,75,71,69,66,79,72,63,29.80,29.70,23,6,23,0.41
2013-7-17,81,78,74,72,69,68,81,76,71,29.80,29.69,11,2,14,0.94
2013-7-18,84,77,74,74,70,67,82,79,71,29.78,29.71,8,1,10,0.63
2013-7-19,88,81,74,76,73,68,84,76,67,29.78,29.70,10,2,12,0.02
2013-7-20,88,83,79,76,74,70,78,74,66,29.77,29.68,13,3,18,0.02
2013-7-21,92,82,77,79,73,70,80,74,63,29.81,29.70,9,1,11,0.00
2013-7-22,93,85,80,77,74,70,78,70,58,29.80,29.72,13,2,13,0.00
2013-7-23,93,85,78,78,74,70,79,69,57,29.76,29.62,14,2,18,0.00
2013-7-24,97,86,79,78,72,68,78,65,47,29.68,29.55,12,2,12,0.00
2013-7-25,94,85,77,75,72,69,78,65,53,29.67,29.56,9,1,11,0.00
2013-7-26,95,84,79,77,73,71,78,70,53,29.68,29.59,16,2,16,0.71
2013-7-27,89,81,78,76,72,70,80,77,65,29.65,29.59,7,0,8,0.33
2013-7-28,86,80,76,76,72,69,82,77,71,29.72,29.60,114,3,114,1.18
2013-7-29,91,83,76,78,74,69,81,73,64,29.79,29.67,22,2,22,0.10
2013-7-30,91,85,76,78,75,68,81,72,61,29.82,29.73,22,3,22,0.63
2013-7-31,91,86,82,77,74,70,76,67,59,29.76,29.65,13,3,13,0.02
2013-8-1,91,85,81,75,72,70,72,67,57,29.71,29.60,14,4,14,0.00
2013-8-2,92,82,77,77,72,0,79,71,61,29.71,29.56,22,2,25,0.47
2013-8-3,87,79,75,76,71,67,82,79,68,29.82,29.67,22,5,24,0.63
2013-8-4,94,82,76,78,73,70,83,74,58,29.76,29.63,24,4,114,0.14
2013-8-5,90,82,77,78,73,70,82,75,65,29.69,29.59,23,5,24,0.22
2013-8-6,93,84,77,78,73,70,81,71,61,29.63,29.53,20,3,114,0.02
2013-8-7,92,84,-22,77,73,-28,78,69,59,29.63,29.55,15,2,20,0.00
2013-8-8,92,86,83,77,74,72,74,67,57,29.67,29.58,16,4,16,0.02
2013-8-9,90,84,82,76,73,70,74,68,59,29.72,29.60,14,4,14,0.02
2013-8-10,93,86,82,77,74,72,75,67,57,29.77,29.68,13,4,15,0.00
2013-8-11,92,86,82,77,74,72,74,68,59,29.79,29.71,14,4,14,0.00
2013-8-12,92,86,82,76,73,71,73,67,58,29.76,29.66,13,3,13,0.00
2013-8-13,94,87,82,77,74,72,75,66,54,29.70,29.61,12,3,12,0.00
2013-8-14,93,87,82,76,74,72,73,66,56,29.68,29.58,12,2,15,0.00
2013-8-15,89,82,76,76,73,70,82,75,65,29.71,29.61,19,2,23,1.90
2013-8-16,87,81,79,77,73,72,80,78,71,29.70,29.64,21,1,22,1.00
2013-8-17,92,88,83,78,76,74,75,68,62,29.73,29.65,15,3,15,0.00
2013-8-18,91,86,83,79,75,72,75,70,62,29.73,29.64,13,4,16,0.02
2013-8-19,93,86,83,77,75,73,75,69,59,29.73,29.61,14,3,16,0.02
2013-8-20,92,86,81,76,74,71,75,68,58,29.72,29.63,15,4,15,0.00
2013-8-21,90,85,80,78,75,71,79,72,63,29.73,29.65,13,4,19,0.14
2013-8-22,92,86,81,78,75,71,77,69,61,29.72,29.60,14,4,14,0.02
2013-8-23,94,86,82,78,74,72,75,68,58,29.66,29.59,13,2,14,0.00
2013-8-24,93,86,80,77,74,70,77,68,58,29.77,29.62,19,3,22,0.02
2013-8-25,86,82,75,75,73,69,81,73,67,29.79,29.68,114,9,114,0.67
2013-8-26,90,83,77,76,72,69,78,70,60,29.76,29.66,22,4,24,0.08
2013-8-27,85,79,75,73,70,67,81,75,61,29.70,29.62,114,10,114,0.63
2013-8-28,90,83,79,75,72,70,78,71,59,29.69,29.60,8,1,12,0.08
2013-8-29,90,83,75,77,73,69,81,71,63,29.68,29.57,114,8,114,0.02
2013-8-30,92,84,77,76,73,70,80,69,55,29.66,29.55,21,4,23,0.02
2013-8-31,92,82,77,77,72,0,79,72,59,29.63,29.56,20,4,114,0.04
2013-9-1,90,81,75,77,72,69,82,74,64,29.65,29.58,114,2,114,0.04
2013-9-2,92,80,76,78,72,69,81,75,61,29.68,29.59,22,6,24,0.04
2013-9-3,92,83,74,78,73,67,81,73,62,29.68,29.58,114,3,114,0.02
2013-9-4,87,84,82,76,74,72,78,73,70,29.72,29.60,8,1,11,0.00
2013-9-5,93,86,82,78,75,73,77,70,61,29.72,29.64,10,2,17,0.00
2013-9-6,93,87,82,78,75,74,76,69,56,29.69,29.58,12,3,12,0.00
2013-9-7,86,82,76,100,73,70,100,75,69,29.63,29.55,114,22,114,0.39
2013-9-8,90,84,75,76,73,69,81,70,61,29.96,29.55,114,14,114,0.39
2013-9-9,91,83,76,76,72,69,79,70,59,30.01,29.90,20,5,26,0.00
2013-9-10,91,84,81,100,74,71,100,70,60,30.05,29.96,114,7,114,0.02
2013-9-11,83,81,76,100,73,70,100,75,69,30.07,29.97,114,10,114,0.61
2013-9-12,86,81,78,76,73,71,81,76,71,30.03,29.89,114,7,114,0.08
2013-9-13,91,85,76,77,74,70,83,70,60,29.91,29.81,114,19,114,0.06
2013-9-14,92,85,78,76,73,0,80,68,57,29.99,29.83,23,4,23,0.00
2013-9-15,84,83,82,76,74,73,79,75,71,30.06,29.97,21,4,23,0.02
2013-9-16,88,82,79,76,73,71,80,75,67,30.07,29.97,22,4,23,0.53
2013-9-17,82,81,78,74,72,71,82,76,72,30.04,29.92,114,16,114,0.24
2013-9-18,89,82,78,76,73,70,81,74,66,30.02,29.92,114,12,114,0.20
2013-9-19,90,83,76,76,73,69,82,70,63,30.01,29.93,114,17,114,0.20
2013-9-20,89,83,79,72,69,66,76,64,53,30.01,29.90,20,4,20,0.02
2013-9-21,90,84,79,74,71,68,72,66,58,29.92,29.78,11,2,13,0.02
2013-9-22,92,84,78,77,74,71,81,71,56,29.88,29.76,22,5,24,0.04
2013-9-23,90,82,79,77,74,71,82,76,64,29.99,29.86,114,11,114,0.20
2013-9-24,93,83,77,79,74,69,83,74,62,29.98,29.88,114,28,114,0.06
2013-9-25,90,81,75,77,72,68,80,74,60,29.91,29.81,24,5,27,0.10
2013-9-26,90,82,77,78,74,70,82,77,68,29.88,29.80,114,33,114,0.53
2013-9-27,90,83,76,74,72,70,83,70,55,29.92,29.83,114,23,114,0.02
2013-9-28,88,82,74,74,71,68,82,70,60,29.97,29.88,114,13,114,0.29
2013-9-29,89,83,78,72,69,67,72,63,53,29.98,29.89,12,2,12,0.02
2013-9-30,90,83,77,72,70,68,73,64,55,30.01,29.91,9,2,9,0.00
2013-10-1,89,84,80,74,71,69,70,65,58,30.04,29.96,12,3,17,0.00
2013-10-2,89,84,81,73,71,70,73,67,56,30.05,29.97,14,4,16,0.00
2013-10-3,89,83,80,74,72,69,75,68,58,30.07,29.96,18,3,18,0.00
2013-10-4,90,84,80,73,70,68,73,65,56,30.07,29.99,9,2,11,0.00
2013-10-5,89,82,74,73,70,66,78,66,56,30.04,29.94,22,4,24,0.00
2013-10-6,90,84,80,74,71,69,76,67,57,29.98,29.88,8,1,12,0.00
2013-10-7,93,81,75,76,71,68,79,71,54,29.91,29.82,114,7,114,0.02
2013-10-8,92,83,76,76,72,68,82,71,58,29.94,29.86,114,21,114,0.02
2013-10-9,86,80,74,74,71,66,80,74,65,29.99,29.91,114,17,114,0.00
2013-10-10,88,83,74,74,70,67,80,66,56,30.02,29.95,114,21,114,0.00
2013-10-11,87,81,72,70,67,64,77,63,53,30.02,29.95,23,3,23,0.00
2013-10-12,88,80,71,69,66,63,76,63,51,30.03,29.96,21,3,21,0.00
2013-10-13,87,80,75,71,66,63,76,62,47,30.06,29.97,19,2,19,0.00
2013-10-14,88,80,72,70,67,64,76,64,53,30.02,29.91,26,2,26,0.00
2013-10-15,88,81,73,71,68,66,79,66,56,29.96,29.88,114,5,114,0.00
2013-10-16,86,80,74,70,68,65,76,66,56,29.96,29.89,19,1,19,0.00
2013-10-17,88,82,74,71,69,66,77,67,56,29.98,29.90,16,1,22,0.00
2013-10-18,89,82,75,74,70,67,77,67,58,30.00,29.91,17,2,17,0.00
2013-10-19,90,83,79,74,71,69,73,67,57,29.97,29.89,9,2,11,0.00
2013-10-20,88,82,78,76,73,71,80,73,66,29.97,29.88,114,2,114,0.02
2013-10-21,90,84,79,76,74,70,77,70,61,30.01,29.91,114,6,114,0.02
2013-10-22,91,84,79,76,74,70,77,70,60,29.98,29.84,114,6,114,0.00
2013-10-23,91,83,78,74,71,66,80,68,56,29.96,29.83,114,21,114,0.00
2013-10-24,81,77,74,67,64,60,71,64,55,30.10,29.94,15,3,17,0.00
2013-10-25,83,78,71,65,63,61,71,60,50,30.15,30.07,16,4,20,0.00
2013-10-26,84,79,73,65,62,59,64,57,49,30.15,30.06,18,4,24,0.00
2013-10-27,84,76,68,65,61,58,71,61,50,30.10,30.03,22,5,28,0.00
2013-10-28,85,80,75,67,63,61,66,58,47,30.15,30.06,9,3,12,0.00
2013-10-29,86,80,76,69,66,63,68,62,55,30.18,30.09,15,4,15,0.00
2013-10-30,85,80,77,68,66,64,68,62,54,30.20,30.09,16,6,16,0.00
2013-10-31,86,81,77,71,69,65,75,67,59,30.12,30.01,15,5,17,0.02
2013-11-1,88,82,79,74,71,68,73,69,62,30.02,29.90,11,4,12,0.02
2013-11-2,91,81,73,71,68,62,79,66,48,29.95,29.81,114,8,114,0.00
2013-11-3,83,76,70,65,62,60,72,62,51,30.03,29.89,20,6,25,0.00
2013-11-4,81,77,75,67,63,57,72,62,48,30.08,30.01,22,8,24,0.04
2013-11-5,82,79,76,70,67,64,75,67,60,30.10,30.02,114,10,114,0.04
2013-11-6,85,80,77,69,67,66,71,66,56,30.07,30.00,21,6,21,0.04
2013-11-7,86,79,71,71,68,64,79,70,59,30.02,29.92,114,11,114,0.00
2013-11-8,85,80,73,71,68,-6,79,68,3,30.04,29.94,114,38,114,0.12
2013-11-9,79,77,74,70,68,68,82,75,72,30.12,30.02,114,41,114,0.45
2013-11-10,83,79,77,71,68,66,75,69,64,30.13,30.06,114,7,114,0.02
2013-11-11,84,79,77,70,67,65,72,66,60,30.13,30.06,14,4,15,0.00
2013-11-12,85,79,74,69,66,65,74,65,56,30.09,29.97,10,3,11,0.00
2013-11-13,77,73,70,65,62,55,77,68,59,30.22,30.00,114,11,114,0.04
2013-11-14,78,73,70,61,57,54,65,58,51,30.24,30.15,20,8,23,0.02
2013-11-15,82,77,73,67,65,60,70,66,59,30.15,30.04,18,8,20,0.00
2013-11-16,82,79,75,70,68,65,75,69,64,30.11,30.02,19,6,19,0.04
2013-11-17,85,80,78,72,69,67,74,68,62,30.09,30.01,15,5,15,0.04
2013-11-18,87,80,75,72,69,67,77,70,60,30.04,29.93,9,2,10,0.00
2013-11-19,85,79,74,72,69,66,80,72,64,29.94,29.86,114,29,114,0.77
2013-11-20,84,80,71,72,70,65,82,72,67,30.07,29.94,114,31,114,0.04
2013-11-21,80,77,73,72,69,67,81,76,73,30.14,30.05,114,81,114,1.51
2013-11-22,82,78,76,70,68,66,75,71,66,30.16,30.08,114,19,114,0.02
2013-11-23,83,79,75,71,68,66,77,71,65,30.09,29.99,114,17,114,0.02
2013-11-24,82,75,70,69,65,62,80,71,59,30.15,29.99,114,16,114,0.45
2013-11-25,75,74,72,66,63,59,75,69,63,30.21,30.06,114,11,114,0.06
2013-11-26,84,79,73,73,70,66,81,75,68,30.06,29.84,114,56,114,0.14
2013-11-27,79,72,60,71,61,49,82,68,55,30.12,29.80,114,30,114,0.53
2013-11-28,74,65,51,60,53,44,76,64,52,30.25,30.12,114,7,114,0.06
2013-11-29,78,72,63,62,58,54,73,62,55,30.27,30.20,21,5,21,0.00
2013-11-30,75,71,64,67,61,56,80,69,61,30.22,30.11,114,8,114,0.24
2013-12-1,81,73,66,68,63,58,82,72,63,30.11,29.96,114,20,114,2.04
2013-12-2,75,70,64,64,61,57,83,75,63,29.95,29.83,114,58,114,0.10
2013-12-3,79,72,62,64,62,56,82,69,59,30.01,29.91,114,26,114,0.02
2013-12-4,83,74,67,68,64,60,80,70,60,30.10,29.99,114,10,114,0.00
2013-12-5,83,78,73,70,67,64,74,69,63,30.17,30.08,12,2,12,0.00
2013-12-6,84,79,76,70,67,65,74,68,61,30.20,30.10,13,3,16,0.00
2013-12-7,84,78,71,70,67,63,78,70,60,30.23,30.14,9,2,15,0.00
2013-12-8,84,79,73,69,67,64,78,68,59,30.22,30.13,114,6,114,0.00
2013-12-9,84,79,76,68,67,64,73,66,57,30.21,30.12,15,3,15,0.00
2013-12-10,85,79,75,72,69,67,76,71,63,30.17,30.09,10,2,16,0.00
2013-12-11,84,78,72,71,68,65,81,72,63,30.21,30.12,114,10,114,0.00
2013-12-12,81,74,70,68,63,58,81,69,62,30.23,30.14,114,17,114,0.00
2013-12-13,79,74,71,66,62,56,75,65,58,30.21,30.10,18,5,18,0.00
2013-12-14,83,78,75,70,68,66,76,71,65,30.12,30.00,114,15,114,0.12
2013-12-15,84,79,72,72,69,65,80,72,66,30.07,29.94,114,34,114,0.12
2013-12-16,75,70,64,65,59,56,77,69,61,30.16,30.04,114,20,114,0.00
2013-12-17,78,71,61,64,58,55,80,65,55,30.19,30.10,114,26,114,0.00
2013-12-18,77,68,62,59,56,54,78,65,51,30.25,30.15,114,11,114,0.00
2013-12-19,78,72,62,62,58,54,76,63,54,30.25,30.16,114,6,114,0.00
2013-12-20,81,77,74,68,65,61,70,66,62,30.20,30.11,16,5,16,0.00
2013-12-21,84,79,77,71,69,66,75,71,65,30.16,30.08,114,11,114,0.00
2013-12-22,84,80,-21,71,69,-26,76,70,65,30.17,30.09,114,35,114,0.00
2013-12-23,85,80,74,72,70,66,77,71,65,30.19,30.12,114,24,114,0.00
2013-12-24,84,74,69,70,65,60,81,72,63,30.18,30.09,114,26,114,0.00
2013-12-25,78,73,-22,65,62,-30,77,69,63,30.18,30.11,114,7,114,0.04
2013-12-26,79,77,76,68,67,66,74,72,68,30.14,30.07,114,13,114,0.06
2013-12-27,82,77,75,70,67,65,74,71,66,30.20,30.10,114,8,114,0.00
2013-12-28,80,77,75,70,68,65,79,74,69,30.18,30.04,17,6,20,0.02
2013-12-29,82,78,75,72,70,68,80,76,71,30.05,29.93,21,5,21,0.02
2013-12-30,79,74,70,69,66,62,81,77,71,30.15,29.99,8,2,8,0.00
2013-12-31,79,73,69,66,63,60,79,69,60,30.24,30.11,20,5,20,0.00
2014-1-1,81,77,74,71,67,62,77,73,67,30.20,30.05,14,4,14,0.02
2014-1-2,86,79,74,70,67,64,77,69,53,30.05,29.87,17,5,17,0.02